Regional Weather Roundup
Issued by NWS Charleston, SC

Current Version | Previous Version | Graphics & Text | Print | Product List | Glossary On
Versions: 1 2 3 4 5 6 7 8 9 10 11 12 13 14 15 16 17 18 19 20 21 22 23 24 25 26 27 28 29 30 31 32 33 34 35 36 37 38 39 40 41 42 43 44 45 46 47 48 49 50
000
ASUS42 KCHS 180825
RWRCHS

REGIONAL WEATHER ROUNDUP
NATIONAL WEATHER SERVICE CHARLESTON SC
300 AM EST THU DEC 18 2014

NOTE: "FAIR" INDICATES FEW OR NO CLOUDS BELOW 12,000 FEET WITH NO
SIGNIFICANT WEATHER AND/OR OBSTRUCTIONS TO VISIBILITY.

NOT ALL STATIONS ARE QUALITY CONTROLLED BY THE NATIONAL
WEATHER SERVICE. USE DATA WITH CAUTION...ESPECIALLY
DEWPOINT OBSERVATIONS.

SCZ027-030-031-034>040-042>050-180900-
...SOUTHEAST SOUTH CAROLINA...

CITY           SKY/WX    TMP DP  RH WIND       PRES   REMARKS
N CHARLESTON   PTCLDY    40  38  93 CALM      30.10S
WATERFRONT PRK   N/A     48 N/A N/A CALM        N/A
MOUNT PLEASANT FAIR      39  39 100 CALM      30.10S FOG
PINOPOLIS        N/A     46  43  87 VRB2      30.02R
MONCKS CORNER  FAIR      37  36  93 CALM      30.10R FOG
SUMMERVILLE    NOT AVBL
BEAUFORT MCAS  PTCLDY    44  40  85 CALM      30.11F
BEAUFORT ARPT  FAIR      43  43 100 SW3       30.11S
HILTON HEAD IS CLEAR     45  43  93 W5        30.13S
WALTERBORO     PTSUNNY   36 N/A N/A CALM      30.11S
ALLENDALE      FAIR      37  37 100 CALM      30.10S

...SOUTHERN MIDLANDS AND PEE DEE...

CITY           SKY/WX    TMP DP  RH WIND       PRES   REMARKS
GEORGETOWN     NOT AVBL
KINGSTREE      NOT AVBL
ORANGEBURG     PTCLDY    36  34  92 CALM      30.09S FOG
BARNWELL         N/A     36  34  93 CALM      30.10S
AIKEN          FAIR      36  36 100 CALM      30.11F
MANNING        NOT AVBL
COLUMBIA       CLEAR     34  31  88 CALM      30.08F
SUMTER         CLEAR     36  34  92 CALM      30.07F
FLORENCE       CLEAR     37  35  92 CALM      30.08S
MYRTLE BEACH   CLEAR     39  34  81 CALM      30.10R
N MYRTLE BEACH CLEAR     42  39  89 CALM      30.09S

$$

GAZ063-065-086>088-099>101-113>116-118-119-134>141-150-180900-
...SOUTHEAST GEORGIA...

CITY           SKY/WX    TMP DP  RH WIND       PRES   REMARKS
SAVANNAH ARPT  CLEAR     43  37  79 W3        30.14R
HUNTER AAF     CLEAR     41  39  93 W2        30.11S
FORT STEWART   PTCLDY    39  37  92 CALM      30.12S
STATESBORO     PTCLDY    35  35 100 CALM      30.11F
SYLVANIA       PTSUNNY   37  37 100 CALM      30.11F
CLAXTON        FAIR      34  34 100 CALM      30.13F

...CSRA...CENTRAL AND FAR SOUTHEAST GEORGIA...

CITY           SKY/WX    TMP DP  RH WIND       PRES   REMARKS
THOMSON        PTCLDY    35  35 100 CALM      30.13S
AUGUSTA-BUSH   PTCLDY    33  32  96 CALM      30.10S
AUGUSTA-DANIEL PTCLDY    42  37  82 W3        30.09F
SWAINSBORO     FAIR      37  37 100 CALM      30.11F
VIDALIA        PTCLDY    37  37 100 CALM      30.11F
EASTMAN        FAIR      34  34 100 CALM      30.16R FOG
HAZLEHURST     FAIR      42  42 100 CALM      30.12F
ALMA           CLOUDY    40  38  93 CALM      30.12F
WAYCROSS       MOCLDY    46  44  95 CALM      30.14S
JESUP          FAIR      43  41  93 CALM      30.13S
BAXLEY         FAIR      41  39  93 CALM      30.13S
BRUNSWICK      MOCLDY    43  41  93 W5        30.14S
SAINT SIMONS   MOCLDY    46  42  86 W3        30.13F

$$

SCZ027-028-034-036>038-045-046-048>050-GAZ119-141-180900-
...LAKE AND SUPPLEMENTAL COASTAL OBSERVATIONS...

STATION/POSITION TIME  TEMP    WIND        PRES    WAVE   SWELL
                       AIR SEA DIR/SP/G            HT/PER HT/PER/DIR
                 (UTC) (F)     (DEG/KT/KT) (MB)    (FT/S) (FT/S/D)
UPR LAKE MARION  NOT AVBL
WINYAH BAY       0800   43     270/  1     1018.0S
LAKE MURRAY      0800   44     290/  2/  3 1018.3S
ACE BASIN NERRS  0800   43        CALM     1019.0S
FORT PULASKI     0800   50 57  280/  7/  8 1020.2S
SAPELO ISLAND    0800   44        CALM     1020.0S

$$

ANZ835-935-AMZ111-154-330-350-352-354-370-450-454-472-180900-
...C-MAN AND BUOY OBSERVATIONS...

STATION/POSITION TIME  TEMP    WIND        PRES    WAVE   SWELL
                       AIR SEA DIR/SP/G            HT/PER HT/PER/DIR
                 (UTC) (F)     (DEG/KT/KT) (MB)    (FT/S) (FT/S/D)
BUOY 41004       0800   61 73  290/  8/ 10 1018.7F   2/11   2/11
BUOY 41008       0800   56 57  300/ 10/ 12 1020.0R   1/ 9
FOLLY BEACH CMAN 0800   48     260/  4/  5 1019.5S
CAPERS NEARSHORE 0700   53     260/  6/  8   N/A
FRIPP NEARSHORE  NOT AVBL


STATION/POSITION TIME  TEMP    WIND        PRES    WAVE   SWELL
                       AIR SEA DIR/SP/G            HT/PER HT/PER/DIR
                 (UTC) (F)     (DEG/KT/KT) (MB)    (FT/S) (FT/S/D)
5E ST. MARYS GA  0800      60                N/A     1/11
FRYING PAN BUOY  0800   58 66  270/  8/ 12 1019.2S   2/ 7   2/100/ 7
BUOY 41025       0800   56                 1017.4R   3/ 5
CAPE LOOKOUT NC  0800   54     290/ 11/ 13 1018.2R
BUOY 41002       0651   69 72  270/  8/ 12 1018.1    5/ 7   5/250/ 7
BUOY 41010       0800   70 76  270/  8/ 12 1019.6F   3/11   2/ 60/11
ST AUGUSTINE FL  0800   50     300/  6/  8 1021.1S


$$



USA.gov is the U.S. government's official web portal to all federal, state and local government web resources and services.